Location: San Antonio
(29.4240°N, 98.4930°W)
Time: 07:30:54
(UTC-05:00)

Envisat - Visible Passes

Search period start: 18 June 2024 00:00
Search period end: 28 June 2024 00:00
Orbit: 762 x 764 km, 98.3° (Epoch: 18 June)

Date Brightness Start Highest point End Pass type
(mag) Time Alt. Az. Time Alt. Az. Time Alt. Az.
18 Jun 5.2 03:40:01 10° NE 03:43:12 17° E 03:45:09 14° ESE visible
18 Jun 3.6 05:17:31 10° N 05:22:14 40° WNW 05:25:18 20° SW visible
19 Jun 3.0 04:39:54 10° NNE 04:44:59 80° ESE 04:47:29 31° S visible
20 Jun 4.4 04:03:06 10° NE 04:07:34 31° E 04:09:38 23° SE visible
20 Jun 4.4 05:42:25 10° NNW 05:46:17 22° WNW 05:49:48 11° WSW visible
21 Jun 5.5 03:28:12 10° ENE 03:29:58 12° E 03:31:45 10° ESE visible
21 Jun 3.2 05:04:13 10° N 05:09:09 55° WNW 05:11:58 25° SW visible
22 Jun 3.4 04:26:51 10° NNE 04:31:51 57° E 04:34:07 31° SSE visible
22 Jun 5.0 06:08:15 10° NW 06:10:15 12° WNW 06:12:14 10° W visible
23 Jun 4.9 03:50:26 10° NE 03:54:22 22° E 03:56:17 18° SE visible
23 Jun 4.0 05:28:52 10° NNW 05:33:15 30° WNW 05:36:26 16° WSW visible
24 Jun 2.9 04:50:59 10° N 04:56:03 77° WNW 04:58:36 30° SSW visible
25 Jun 4.0 04:13:54 10° NNE 04:18:41 41° E 04:20:45 28° SSE visible
25 Jun 4.7 05:54:03 10° NNW 05:57:15 17° WNW 06:00:27 10° WSW visible
26 Jun 5.2 03:38:03 10° ENE 03:41:08 16° E 03:42:55 14° ESE visible
26 Jun 3.5 05:15:27 10° N 05:20:11 41° WNW 05:23:04 21° SW visible
27 Jun 3.0 04:37:51 10° NNE 04:42:56 77° ESE 04:45:13 33° S visible
